contact:dominique.lefevre@mio.osupytheas.fr, maurice.libes@osupytheas.fr, didier.mallarino@osupytheas.fr
Project:EMSO http://www.emso-fr.org/EMSO-France
Depth: 2436.0 m
Title:EMSO Ligure Ouest : Data MII capteur MICROCAT
DateTime_Computer,Latitude,Longitude,Temperature,Conductivity,Pressure,DateTime_Instrument
DateTime_Computer,Latitude,Longitude,degC,S m-1,dbar,DateTime_Instrument
2021-01-29T00:01:03Z,42.805,6.029,13.2991,4.60013,2470.147,2021-1-29T02:02:06Z
2021-01-29T00:04:06Z,42.805,6.029,13.2998,4.60015,2470.1,2021-1-29T02:05:09Z
2021-01-29T00:07:10Z,42.805,6.029,13.2993,4.60026,2470.063,2021-1-29T02:08:12Z
2021-01-29T00:10:13Z,42.805,6.029,13.3001,4.60027,2470.1,2021-1-29T02:11:15Z
2021-01-29T00:13:16Z,42.805,6.029,13.2995,4.60013,2470.124,2021-1-29T02:14:18Z
2021-01-29T00:16:19Z,42.805,6.029,13.2996,4.60014,2470.1,2021-1-29T02:17:21Z
2021-01-29T00:19:22Z,42.805,6.029,13.2985,4.60006,2470.1,2021-1-29T02:20:25Z
2021-01-29T00:22:25Z,42.805,6.029,13.2991,4.60016,2470.11,2021-1-29T02:23:28Z
2021-01-29T00:25:28Z,42.805,6.029,13.2990,4.60016,2470.1,2021-1-29T02:26:31Z
2021-01-29T00:28:31Z,42.805,6.029,13.2994,4.60021,2470.077,2021-1-29T02:29:34Z
2021-01-29T00:31:35Z,42.805,6.029,13.2991,4.60014,2470.124,2021-1-29T02:32:37Z
2021-01-29T00:34:38Z,42.805,6.029,13.3000,4.60026,2470.063,2021-1-29T02:35:40Z
2021-01-29T00:37:41Z,42.805,6.029,13.2991,4.60029,2470.063,2021-1-29T02:38:43Z
2021-01-29T00:40:44Z,42.805,6.029,13.2991,4.60024,2470.063,2021-1-29T02:41:46Z
2021-01-29T00:43:47Z,42.805,6.029,13.2996,4.60041,2470.1,2021-1-29T02:44:50Z
2021-01-29T00:46:50Z,42.805,6.029,13.2990,4.60034,2470.053,2021-1-29T02:47:53Z
2021-01-29T00:49:53Z,42.805,6.029,13.2994,4.60013,2470.124,2021-1-29T02:50:56Z
2021-01-29T00:52:56Z,42.805,6.029,13.2994,4.60024,2470.124,2021-1-29T02:53:59Z
2021-01-29T00:56:00Z,42.805,6.029,13.2998,4.60040,2470.077,2021-1-29T02:57:02Z
2021-01-29T00:59:03Z,42.805,6.029,13.2999,4.60039,2470.04,2021-1-29T03:00:05Z
2021-01-29T01:02:06Z,42.805,6.029,13.2992,4.60014,2470.1,2021-1-29T03:03:08Z
2021-01-29T01:05:09Z,42.805,6.029,13.2993,4.60013,2470.11,2021-1-29T03:06:11Z
2021-01-29T01:08:12Z,42.805,6.029,13.2988,4.60015,2470.063,2021-1-29T03:09:14Z
2021-01-29T01:11:15Z,42.805,6.029,13.2991,4.60014,2470.04,2021-1-29T03:12:18Z
2021-01-29T01:14:18Z,42.805,6.029,13.2986,4.60004,2470.087,2021-1-29T03:15:21Z
2021-01-29T01:17:21Z,42.805,6.029,13.2996,4.60010,2470.077,2021-1-29T03:18:24Z
2021-01-29T01:20:24Z,42.805,6.029,13.2988,4.60000,2470.026,2021-1-29T03:21:27Z
2021-01-29T01:23:28Z,42.805,6.029,13.2990,4.60007,2470.087,2021-1-29T03:24:30Z
2021-01-29T01:26:31Z,42.805,6.029,13.2982,4.60000,2470.077,2021-1-29T03:27:33Z
2021-01-29T01:29:34Z,42.805,6.029,13.2986,4.60005,2470.063,2021-1-29T03:30:36Z
2021-01-29T01:32:37Z,42.805,6.029,13.2983,4.59991,2470.04,2021-1-29T03:33:39Z
2021-01-29T01:35:40Z,42.805,6.029,13.2983,4.59994,2470.1,2021-1-29T03:36:43Z
2021-01-29T01:38:43Z,42.805,6.029,13.2983,4.60007,2470.063,2021-1-29T03:39:46Z
2021-01-29T01:41:46Z,42.805,6.029,13.2982,4.59995,2470.124,2021-1-29T03:42:49Z
2021-01-29T01:44:49Z,42.805,6.029,13.2983,4.59994,2470.077,2021-1-29T03:45:52Z
2021-01-29T01:47:53Z,42.805,6.029,13.2982,4.59991,2470.017,2021-1-29T03:48:55Z
2021-01-29T01:50:56Z,42.805,6.029,13.2983,4.59994,2470.063,2021-1-29T03:51:58Z
2021-01-29T01:53:59Z,42.805,6.029,13.2983,4.59999,2470.1,2021-1-29T03:55:01Z
2021-01-29T01:57:02Z,42.805,6.029,13.2991,4.60006,2470.087,2021-1-29T03:58:04Z
2021-01-29T02:00:05Z,42.805,6.029,13.2984,4.60014,2470.063,2021-1-29T04:01:08Z
2021-01-29T02:03:08Z,42.805,6.029,13.2986,4.59999,2470.1,2021-1-29T04:04:11Z
2021-01-29T02:06:11Z,42.805,6.029,13.2979,4.59996,2470.087,2021-1-29T04:07:14Z
2021-01-29T02:09:14Z,42.805,6.029,13.2979,4.59987,2470.087,2021-1-29T04:10:17Z
2021-01-29T02:12:18Z,42.805,6.029,13.2977,4.59991,2470.11,2021-1-29T04:13:20Z
2021-01-29T02:15:21Z,42.805,6.029,13.2983,4.59991,2470.087,2021-1-29T04:16:23Z
2021-01-29T02:18:24Z,42.805,6.029,13.2983,4.59991,2470.1,2021-1-29T04:19:26Z
2021-01-29T02:21:27Z,42.805,6.029,13.2989,4.59996,2470.087,2021-1-29T04:22:29Z
2021-01-29T02:24:30Z,42.805,6.029,13.2980,4.59991,2470.1,2021-1-29T04:25:33Z
2021-01-29T02:27:33Z,42.805,6.029,13.2983,4.59997,2470.087,2021-1-29T04:28:36Z
2021-01-29T02:30:36Z,42.805,6.029,13.2979,4.59987,2470.063,2021-1-29T04:31:39Z
2021-01-29T02:33:39Z,42.805,6.029,13.2976,4.59989,2470.11,2021-1-29T04:34:42Z
2021-01-29T02:36:43Z,42.805,6.029,13.2979,4.59988,2470.1,2021-1-29T04:37:45Z
2021-01-29T02:39:46Z,42.805,6.029,13.2984,4.59987,2470.077,2021-1-29T04:40:48Z
2021-01-29T02:42:49Z,42.805,6.029,13.2988,4.60016,2470.087,2021-1-29T04:43:51Z
2021-01-29T02:45:52Z,42.805,6.029,13.2981,4.59992,2470.087,2021-1-29T04:46:54Z
2021-01-29T02:48:55Z,42.805,6.029,13.2982,4.59994,2470.087,2021-1-29T04:49:58Z
2021-01-29T02:51:58Z,42.805,6.029,13.2980,4.59989,2470.063,2021-1-29T04:53:01Z
2021-01-29T02:55:01Z,42.805,6.029,13.2982,4.59992,2470.049,2021-1-29T04:56:04Z
2021-01-29T02:58:04Z,42.805,6.029,13.2980,4.59992,2470.087,2021-1-29T04:59:07Z
2021-01-29T03:01:08Z,42.805,6.029,13.2985,4.59991,2470.11,2021-1-29T05:02:10Z
2021-01-29T03:04:11Z,42.805,6.029,13.2983,4.59991,2470.087,2021-1-29T05:05:13Z
2021-01-29T03:07:14Z,42.805,6.029,13.2981,4.59992,2470.1,2021-1-29T05:08:16Z
2021-01-29T03:10:17Z,42.805,6.029,13.2982,4.59992,2470.124,2021-1-29T05:11:19Z
2021-01-29T03:13:20Z,42.805,6.029,13.2978,4.59988,2470.11,2021-1-29T05:14:23Z
2021-01-29T03:16:23Z,42.805,6.029,13.2981,4.59989,2470.11,2021-1-29T05:17:26Z
2021-01-29T03:19:26Z,42.805,6.029,13.2982,4.59993,2470.11,2021-1-29T05:20:29Z
2021-01-29T03:22:29Z,42.805,6.029,13.2986,4.59993,2470.087,2021-1-29T05:23:32Z
2021-01-29T03:25:33Z,42.805,6.029,13.2982,4.59996,2470.133,2021-1-29T05:26:35Z
2021-01-29T03:28:36Z,42.805,6.029,13.2980,4.59994,2470.147,2021-1-29T05:29:38Z
2021-01-29T03:31:39Z,42.805,6.029,13.2979,4.60003,2470.147,2021-1-29T05:32:41Z
2021-01-29T03:34:42Z,42.805,6.029,13.2984,4.59993,2470.11,2021-1-29T05:35:44Z
2021-01-29T03:37:45Z,42.805,6.029,13.2981,4.59996,2470.124,2021-1-29T05:38:48Z
2021-01-29T03:40:48Z,42.805,6.029,13.2982,4.60001,2470.11,2021-1-29T05:41:51Z
2021-01-29T03:43:51Z,42.805,6.029,13.2983,4.59996,2470.11,2021-1-29T05:44:54Z
2021-01-29T03:46:54Z,42.805,6.029,13.2982,4.59992,2470.11,2021-1-29T05:47:57Z
2021-01-29T03:49:58Z,42.805,6.029,13.2982,4.60003,2470.133,2021-1-29T05:51:00Z
2021-01-29T03:53:01Z,42.805,6.029,13.2982,4.59989,2470.133,2021-1-29T05:54:03Z
2021-01-29T03:56:04Z,42.805,6.029,13.2987,4.60001,2470.11,2021-1-29T05:57:06Z
2021-01-29T03:59:07Z,42.805,6.029,13.2982,4.60000,2470.11,2021-1-29T06:00:09Z
2021-01-29T04:02:10Z,42.805,6.029,13.2983,4.59995,2470.11,2021-1-29T06:03:13Z
2021-01-29T04:05:13Z,42.805,6.029,13.2979,4.59989,2470.133,2021-1-29T06:06:16Z
2021-01-29T04:08:16Z,42.805,6.029,13.2984,4.59995,2470.133,2021-1-29T06:09:19Z
2021-01-29T04:11:19Z,42.805,6.029,13.2981,4.59997,2470.171,2021-1-29T06:12:22Z
2021-01-29T04:14:22Z,42.805,6.029,13.2981,4.59997,2470.194,2021-1-29T06:15:25Z
2021-01-29T04:17:26Z,42.805,6.029,13.2992,4.60000,2470.171,2021-1-29T06:18:28Z
2021-01-29T04:20:29Z,42.805,6.029,13.2982,4.60004,2470.171,2021-1-29T06:21:31Z
2021-01-29T04:23:32Z,42.805,6.029,13.2982,4.59988,2470.18,2021-1-29T06:24:34Z
2021-01-29T04:26:35Z,42.805,6.029,13.2980,4.59996,2470.171,2021-1-29T06:27:38Z
2021-01-29T04:29:38Z,42.805,6.029,13.2980,4.59996,2470.156,2021-1-29T06:30:41Z
2021-01-29T04:32:41Z,42.805,6.029,13.2976,4.59991,2470.18,2021-1-29T06:33:44Z
2021-01-29T04:35:44Z,42.805,6.029,13.2988,4.59997,2470.18,2021-1-29T06:36:47Z
2021-01-29T04:38:47Z,42.805,6.029,13.2983,4.59996,2470.194,2021-1-29T06:39:50Z
2021-01-29T04:41:51Z,42.805,6.029,13.2980,4.59991,2470.18,2021-1-29T06:42:53Z
2021-01-29T04:44:54Z,42.805,6.029,13.2979,4.59993,2470.18,2021-1-29T06:45:56Z
2021-01-29T04:47:57Z,42.805,6.029,13.2981,4.59992,2470.18,2021-1-29T06:48:59Z
2021-01-29T04:51:00Z,42.805,6.029,13.2986,4.59994,2470.18,2021-1-29T06:52:03Z
2021-01-29T04:54:03Z,42.805,6.029,13.2986,4.60001,2470.217,2021-1-29T06:55:06Z
2021-01-29T04:57:06Z,42.805,6.029,13.2988,4.59998,2470.24,2021-1-29T06:58:09Z
2021-01-29T05:00:09Z,42.805,6.029,13.2980,4.59992,2470.203,2021-1-29T07:01:12Z
2021-01-29T05:03:12Z,42.805,6.029,13.2979,4.59991,2470.203,2021-1-29T07:04:15Z
2021-01-29T05:06:16Z,42.805,6.029,13.2984,4.59997,2470.217,2021-1-29T07:07:18Z
2021-01-29T05:09:19Z,42.805,6.029,13.2986,4.59991,2470.227,2021-1-29T07:10:21Z
2021-01-29T05:12:22Z,42.805,6.029,13.2983,4.59999,2470.25,2021-1-29T07:13:24Z
2021-01-29T05:15:25Z,42.805,6.029,13.2981,4.59993,2470.24,2021-1-29T07:16:27Z
2021-01-29T05:18:28Z,42.805,6.029,13.2982,4.60000,2470.203,2021-1-29T07:19:31Z
2021-01-29T05:21:31Z,42.805,6.029,13.2986,4.59997,2470.25,2021-1-29T07:22:34Z
2021-01-29T05:24:34Z,42.805,6.029,13.2983,4.59993,2470.203,2021-1-29T07:25:37Z
2021-01-29T05:27:37Z,42.805,6.029,13.2988,4.60020,2470.203,2021-1-29T07:28:40Z
2021-01-29T05:30:41Z,42.805,6.029,13.2979,4.59997,2470.25,2021-1-29T07:31:43Z
2021-01-29T05:33:44Z,42.805,6.029,13.2979,4.59991,2470.227,2021-1-29T07:34:46Z
2021-01-29T05:36:47Z,42.805,6.029,13.2979,4.59991,2470.227,2021-1-29T07:37:49Z
2021-01-29T05:39:50Z,42.805,6.029,13.2988,4.60000,2470.24,2021-1-29T07:40:52Z
2021-01-29T05:42:53Z,42.805,6.029,13.2980,4.59990,2470.31,2021-1-29T07:43:56Z
2021-01-29T05:45:56Z,42.805,6.029,13.2985,4.59990,2470.25,2021-1-29T07:46:59Z
2021-01-29T05:48:59Z,42.805,6.029,13.2982,4.60018,2470.25,2021-1-29T07:50:02Z
2021-01-29T05:52:02Z,42.805,6.029,13.2982,4.59996,2470.25,2021-1-29T07:53:05Z
2021-01-29T05:55:06Z,42.805,6.029,13.2990,4.60008,2470.25,2021-1-29T07:56:08Z
2021-01-29T05:58:09Z,42.805,6.029,13.2989,4.60012,2470.24,2021-1-29T07:59:11Z
2021-01-29T06:01:12Z,42.805,6.029,13.2991,4.59998,2470.273,2021-1-29T08:02:14Z
2021-01-29T06:04:15Z,42.805,6.029,13.2991,4.60014,2470.273,2021-1-29T08:05:17Z
2021-01-29T06:07:18Z,42.805,6.029,13.2980,4.59999,2470.264,2021-1-29T08:08:21Z
2021-01-29T06:10:21Z,42.805,6.029,13.2983,4.59996,2470.287,2021-1-29T08:11:24Z
2021-01-29T06:13:24Z,42.805,6.029,13.2977,4.59992,2470.273,2021-1-29T08:14:27Z
2021-01-29T06:16:27Z,42.805,6.029,13.2982,4.59994,2470.273,2021-1-29T08:17:30Z
2021-01-29T06:19:30Z,42.805,6.029,13.2982,4.59993,2470.273,2021-1-29T08:20:33Z
2021-01-29T06:22:34Z,42.805,6.029,13.2982,4.59995,2470.31,2021-1-29T08:23:36Z
2021-01-29T06:25:37Z,42.805,6.029,13.2982,4.59997,2470.32,2021-1-29T08:26:39Z
2021-01-29T06:28:40Z,42.805,6.029,13.2984,4.59993,2470.297,2021-1-29T08:29:42Z
2021-01-29T06:31:43Z,42.805,6.029,13.2982,4.59991,2470.264,2021-1-29T08:32:46Z
2021-01-29T06:34:46Z,42.805,6.029,13.2981,4.59994,2470.297,2021-1-29T08:35:49Z
2021-01-29T06:37:49Z,42.805,6.029,13.2983,4.59999,2470.32,2021-1-29T08:38:52Z
2021-01-29T06:40:52Z,42.805,6.029,13.2986,4.59999,2470.297,2021-1-29T08:41:55Z
2021-01-29T06:43:56Z,42.805,6.029,13.2987,4.60001,2470.297,2021-1-29T08:44:58Z
2021-01-29T06:46:59Z,42.805,6.029,13.2986,4.59997,2470.334,2021-1-29T08:48:01Z
2021-01-29T06:50:02Z,42.805,6.029,13.2986,4.60000,2470.334,2021-1-29T08:51:04Z
2021-01-29T06:53:05Z,42.805,6.029,13.2983,4.59998,2470.25,2021-1-29T08:54:07Z
2021-01-29T06:56:08Z,42.805,6.029,13.2981,4.59995,2470.32,2021-1-29T08:57:11Z
2021-01-29T06:59:11Z,42.805,6.029,13.2982,4.60003,2470.32,2021-1-29T09:00:14Z
2021-01-29T07:02:14Z,42.805,6.029,13.2981,4.60008,2470.334,2021-1-29T09:03:17Z
2021-01-29T07:05:17Z,42.805,6.029,13.2995,4.60007,2470.334,2021-1-29T09:06:20Z
2021-01-29T07:08:20Z,42.805,6.029,13.2986,4.60004,2470.31,2021-1-29T09:09:23Z
2021-01-29T07:11:24Z,42.805,6.029,13.2982,4.60003,2470.357,2021-1-29T09:12:26Z
2021-01-29T07:14:27Z,42.805,6.029,13.2991,4.60002,2470.32,2021-1-29T09:15:29Z
2021-01-29T07:17:30Z,42.805,6.029,13.2983,4.59998,2470.334,2021-1-29T09:18:32Z
2021-01-29T07:20:33Z,42.805,6.029,13.2991,4.60001,2470.306,2021-1-29T09:21:35Z
2021-01-29T07:23:36Z,42.805,6.029,13.2991,4.60014,2470.366,2021-1-29T09:24:39Z
2021-01-29T07:26:39Z,42.805,6.029,13.2983,4.60004,2470.334,2021-1-29T09:27:42Z
2021-01-29T07:29:42Z,42.805,6.029,13.2987,4.60001,2470.32,2021-1-29T09:30:45Z
2021-01-29T07:32:45Z,42.805,6.029,13.2986,4.60001,2470.297,2021-1-29T09:33:48Z
2021-01-29T07:35:49Z,42.805,6.029,13.2979,4.59997,2470.357,2021-1-29T09:36:51Z
2021-01-29T07:38:52Z,42.805,6.029,13.2983,4.60014,2470.334,2021-1-29T09:39:54Z
2021-01-29T07:41:55Z,42.805,6.029,13.2986,4.60004,2470.343,2021-1-29T09:42:57Z
2021-01-29T07:44:58Z,42.805,6.029,13.2993,4.60029,2470.404,2021-1-29T09:46:01Z
2021-01-29T07:48:01Z,42.805,6.029,13.2991,4.60024,2470.357,2021-1-29T09:49:04Z
2021-01-29T07:51:04Z,42.805,6.029,13.2990,4.60009,2470.31,2021-1-29T09:52:07Z
2021-01-29T07:54:07Z,42.805,6.029,13.2984,4.60020,2470.297,2021-1-29T09:55:10Z
2021-01-29T07:57:10Z,42.805,6.029,13.2986,4.60009,2470.32,2021-1-29T09:58:13Z
2021-01-29T08:00:14Z,42.805,6.029,13.2980,4.60010,2470.343,2021-1-29T10:01:16Z
2021-01-29T08:03:17Z,42.805,6.029,13.2982,4.60001,2470.32,2021-1-29T10:04:19Z
2021-01-29T08:06:20Z,42.805,6.029,13.3001,4.60011,2470.357,2021-1-29T10:07:22Z
2021-01-29T08:09:23Z,42.805,6.029,13.2984,4.60013,2470.357,2021-1-29T10:10:26Z
2021-01-29T08:12:26Z,42.805,6.029,13.2990,4.60009,2470.32,2021-1-29T10:13:29Z
2021-01-29T08:15:29Z,42.805,6.029,13.2981,4.60011,2470.32,2021-1-29T10:16:32Z
2021-01-29T08:18:32Z,42.805,6.029,13.2982,4.60011,2470.334,2021-1-29T10:19:35Z
2021-01-29T08:21:36Z,42.805,6.029,13.2991,4.60008,2470.32,2021-1-29T10:22:38Z
2021-01-29T08:24:39Z,42.805,6.029,13.2991,4.60004,2470.32,2021-1-29T10:25:41Z
2021-01-29T08:27:42Z,42.805,6.029,13.2990,4.60001,2470.31,2021-1-29T10:28:44Z
2021-01-29T08:30:45Z,42.805,6.029,13.2988,4.60007,2470.334,2021-1-29T10:31:47Z
2021-01-29T08:33:48Z,42.805,6.029,13.2985,4.59999,2470.343,2021-1-29T10:34:51Z
2021-01-29T08:36:51Z,42.805,6.029,13.2990,4.60005,2470.357,2021-1-29T10:37:54Z
2021-01-29T08:39:54Z,42.805,6.029,13.2989,4.60000,2470.343,2021-1-29T10:40:57Z
2021-01-29T08:42:57Z,42.805,6.029,13.2986,4.59999,2470.334,2021-1-29T10:44:00Z
2021-01-29T08:46:01Z,42.805,6.029,13.2991,4.60007,2470.32,2021-1-29T10:47:03Z
2021-01-29T08:49:04Z,42.805,6.029,13.2991,4.59999,2470.32,2021-1-29T10:50:06Z
2021-01-29T08:52:07Z,42.805,6.029,13.2990,4.60001,2470.334,2021-1-29T10:53:09Z
2021-01-29T08:55:10Z,42.805,6.029,13.2984,4.60023,2470.31,2021-1-29T10:56:12Z
2021-01-29T08:58:13Z,42.805,6.029,13.2992,4.60010,2470.334,2021-1-29T10:59:16Z
2021-01-29T09:01:16Z,42.805,6.029,13.2989,4.60019,2470.343,2021-1-29T11:02:19Z
2021-01-29T09:04:19Z,42.805,6.029,13.2991,4.60009,2470.334,2021-1-29T11:05:22Z
2021-01-29T09:07:22Z,42.805,6.029,13.2986,4.60006,2470.32,2021-1-29T11:08:25Z
2021-01-29T09:10:26Z,42.805,6.029,13.2990,4.59996,2470.32,2021-1-29T11:11:28Z
2021-01-29T09:13:29Z,42.805,6.029,13.2990,4.60016,2470.334,2021-1-29T11:14:31Z
2021-01-29T09:16:32Z,42.805,6.029,13.2983,4.60014,2470.32,2021-1-29T11:17:34Z
2021-01-29T09:19:35Z,42.805,6.029,13.2984,4.59996,2470.334,2021-1-29T11:20:37Z
2021-01-29T09:22:38Z,42.805,6.029,13.2990,4.60014,2470.32,2021-1-29T11:23:41Z
2021-01-29T09:25:41Z,42.805,6.029,13.2991,4.60015,2470.297,2021-1-29T11:26:44Z
2021-01-29T09:28:44Z,42.805,6.029,13.2991,4.60020,2470.32,2021-1-29T11:29:47Z
2021-01-29T09:31:47Z,42.805,6.029,13.2987,4.60010,2470.297,2021-1-29T11:32:50Z
2021-01-29T09:34:51Z,42.805,6.029,13.2983,4.60002,2470.31,2021-1-29T11:35:53Z
2021-01-29T09:37:54Z,42.805,6.029,13.2988,4.60059,2470.297,2021-1-29T11:38:56Z
2021-01-29T09:40:57Z,42.805,6.029,13.2983,4.60046,2470.297,2021-1-29T11:41:59Z
2021-01-29T09:44:00Z,42.805,6.029,13.2989,4.60016,2470.273,2021-1-29T11:45:03Z
2021-01-29T09:47:03Z,42.805,6.029,13.2983,4.60027,2470.287,2021-1-29T11:48:06Z
2021-01-29T09:50:06Z,42.805,6.029,13.2988,4.60014,2470.31,2021-1-29T11:51:09Z
2021-01-29T09:53:09Z,42.805,6.029,13.2987,4.60009,2470.334,2021-1-29T11:54:12Z
2021-01-29T09:56:12Z,42.805,6.029,13.2989,4.60009,2470.273,2021-1-29T11:57:15Z
2021-01-29T09:59:16Z,42.805,6.029,13.2993,4.60039,2470.334,2021-1-29T12:00:18Z
2021-01-29T10:02:19Z,42.805,6.029,13.3001,4.60029,2470.297,2021-1-29T12:03:21Z
2021-01-29T10:05:22Z,42.805,6.029,13.2982,4.60002,2470.31,2021-1-29T12:06:24Z
2021-01-29T10:08:25Z,42.805,6.029,13.2991,4.60025,2470.264,2021-1-29T12:09:28Z
2021-01-29T10:11:28Z,42.805,6.029,13.2987,4.60024,2470.273,2021-1-29T12:12:31Z
2021-01-29T10:14:31Z,42.805,6.029,13.2985,4.60009,2470.287,2021-1-29T12:15:34Z
2021-01-29T10:17:34Z,42.805,6.029,13.2986,4.60018,2470.273,2021-1-29T12:18:37Z
2021-01-29T10:20:37Z,42.805,6.029,13.2989,4.60036,2470.287,2021-1-29T12:21:40Z
2021-01-29T10:23:41Z,42.805,6.029,13.2983,4.60039,2470.287,2021-1-29T12:24:43Z
2021-01-29T10:26:44Z,42.805,6.029,13.2996,4.60013,2470.273,2021-1-29T12:27:46Z
2021-01-29T10:29:47Z,42.805,6.029,13.2993,4.60031,2470.273,2021-1-29T12:30:49Z
2021-01-29T10:32:50Z,42.805,6.029,13.2982,4.60034,2470.264,2021-1-29T12:33:53Z
2021-01-29T10:35:53Z,42.805,6.029,13.3003,4.60016,2470.25,2021-1-29T12:36:56Z
2021-01-29T10:38:56Z,42.805,6.029,13.2999,4.60044,2470.273,2021-1-29T12:39:59Z
2021-01-29T10:41:59Z,42.805,6.029,13.2989,4.60024,2470.264,2021-1-29T12:43:02Z
2021-01-29T10:45:03Z,42.805,6.029,13.2994,4.60033,2470.287,2021-1-29T12:46:05Z
2021-01-29T10:48:06Z,42.805,6.029,13.2996,4.60028,2470.264,2021-1-29T12:49:08Z
2021-01-29T10:51:09Z,42.805,6.029,13.2998,4.60027,2470.264,2021-1-29T12:52:11Z
2021-01-29T10:54:12Z,42.805,6.029,13.2991,4.60058,2470.273,2021-1-29T12:55:14Z
2021-01-29T10:57:15Z,42.805,6.029,13.3012,4.60072,2470.227,2021-1-29T12:58:18Z
2021-01-29T11:00:18Z,42.805,6.029,13.3000,4.60069,2470.25,2021-1-29T13:01:21Z
2021-01-29T11:03:21Z,42.805,6.029,13.3002,4.60074,2470.264,2021-1-29T13:04:24Z
2021-01-29T11:06:24Z,42.805,6.029,13.3004,4.60067,2470.24,2021-1-29T13:07:27Z
2021-01-29T11:09:28Z,42.805,6.029,13.2994,4.60058,2470.24,2021-1-29T13:10:30Z
2021-01-29T11:12:31Z,42.805,6.029,13.3009,4.60057,2470.227,2021-1-29T13:13:33Z
2021-01-29T11:15:34Z,42.805,6.029,13.2999,4.60057,2470.203,2021-1-29T13:16:36Z
2021-01-29T11:18:37Z,42.805,6.029,13.2992,4.60055,2470.24,2021-1-29T13:19:39Z
2021-01-29T11:21:40Z,42.805,6.029,13.3004,4.60060,2470.217,2021-1-29T13:22:43Z
2021-01-29T11:24:43Z,42.805,6.029,13.2990,4.60047,2470.227,2021-1-29T13:25:46Z
2021-01-29T11:27:46Z,42.805,6.029,13.2989,4.60050,2470.203,2021-1-29T13:28:49Z
2021-01-29T11:30:49Z,42.805,6.029,13.3000,4.60056,2470.24,2021-1-29T13:31:52Z
2021-01-29T11:33:53Z,42.805,6.029,13.3004,4.60055,2470.203,2021-1-29T13:34:55Z
2021-01-29T11:36:56Z,42.805,6.029,13.3002,4.60026,2470.18,2021-1-29T13:37:58Z
2021-01-29T11:39:59Z,42.805,6.029,13.2996,4.60033,2470.25,2021-1-29T13:41:01Z
2021-01-29T11:43:02Z,42.805,6.029,13.2999,4.60034,2470.24,2021-1-29T13:44:04Z
2021-01-29T11:46:05Z,42.805,6.029,13.2996,4.60076,2470.217,2021-1-29T13:47:08Z
2021-01-29T11:49:08Z,42.805,6.029,13.3002,4.60081,2470.24,2021-1-29T13:50:11Z
2021-01-29T11:52:11Z,42.805,6.029,13.3000,4.60066,2470.227,2021-1-29T13:53:14Z
2021-01-29T11:55:14Z,42.805,6.029,13.2996,4.60031,2470.217,2021-1-29T13:56:17Z
2021-01-29T11:58:18Z,42.805,6.029,13.3021,4.60049,2470.227,2021-1-29T13:59:20Z
2021-01-29T12:01:21Z,42.805,6.029,13.3016,4.60034,2470.194,2021-1-29T14:02:23Z
2021-01-29T12:04:24Z,42.805,6.029,13.3010,4.60046,2470.194,2021-1-29T14:05:26Z
2021-01-29T12:07:27Z,42.805,6.029,13.3021,4.60062,2470.194,2021-1-29T14:08:30Z
2021-01-29T12:10:30Z,42.805,6.029,13.2989,4.60039,2470.203,2021-1-29T14:11:33Z
2021-01-29T12:13:33Z,42.805,6.029,13.2997,4.60033,2470.18,2021-1-29T14:14:36Z
2021-01-29T12:16:36Z,42.805,6.029,13.3006,4.60054,2470.156,2021-1-29T14:17:39Z
2021-01-29T12:19:39Z,42.805,6.029,13.2999,4.60039,2470.156,2021-1-29T14:20:42Z
2021-01-29T12:22:43Z,42.805,6.029,13.2998,4.60044,2470.171,2021-1-29T14:23:45Z
2021-01-29T12:25:46Z,42.805,6.029,13.2993,4.60060,2470.18,2021-1-29T14:26:48Z
2021-01-29T12:28:49Z,42.805,6.029,13.2991,4.60038,2470.171,2021-1-29T14:29:51Z
2021-01-29T12:31:52Z,42.805,6.029,13.2990,4.60039,2470.171,2021-1-29T14:32:55Z
2021-01-29T12:34:55Z,42.805,6.029,13.2991,4.60007,2470.203,2021-1-29T14:35:58Z
2021-01-29T12:37:58Z,42.805,6.029,13.2991,4.60037,2470.147,2021-1-29T14:39:01Z
2021-01-29T12:41:01Z,42.805,6.029,13.2993,4.60034,2470.171,2021-1-29T14:42:04Z
2021-01-29T12:44:04Z,42.805,6.029,13.2999,4.60032,2470.18,2021-1-29T14:45:07Z
2021-01-29T12:47:08Z,42.805,6.029,13.3009,4.60038,2470.156,2021-1-29T14:48:10Z
2021-01-29T12:50:11Z,42.805,6.029,13.3019,4.60039,2470.171,2021-1-29T14:51:13Z
2021-01-29T12:53:14Z,42.805,6.029,13.3001,4.60049,2470.156,2021-1-29T14:54:16Z
2021-01-29T12:56:17Z,42.805,6.029,13.2996,4.60039,2470.147,2021-1-29T14:57:20Z
2021-01-29T12:59:20Z,42.805,6.029,13.3013,4.60024,2470.147,2021-1-29T15:00:23Z
2021-01-29T13:02:23Z,42.805,6.029,13.2989,4.59992,2470.171,2021-1-29T15:03:26Z
2021-01-29T13:05:26Z,42.805,6.029,13.2979,4.59986,2470.18,2021-1-29T15:06:29Z
2021-01-29T13:08:30Z,42.805,6.029,13.2978,4.59983,2470.171,2021-1-29T15:09:32Z
2021-01-29T13:11:33Z,42.805,6.029,13.2974,4.59983,2470.133,2021-1-29T15:12:35Z
2021-01-29T13:14:36Z,42.805,6.029,13.3019,4.60009,2470.156,2021-1-29T15:15:38Z
2021-01-29T13:17:39Z,42.805,6.029,13.3012,4.60002,2470.124,2021-1-29T15:18:41Z
2021-01-29T13:20:42Z,42.805,6.029,13.3012,4.60037,2470.124,2021-1-29T15:21:45Z
2021-01-29T13:23:45Z,42.805,6.029,13.2998,4.60031,2470.147,2021-1-29T15:24:48Z
2021-01-29T13:26:48Z,42.805,6.029,13.2990,4.60031,2470.133,2021-1-29T15:27:51Z
2021-01-29T13:29:51Z,42.805,6.029,13.2988,4.60045,2470.11,2021-1-29T15:30:54Z
2021-01-29T13:32:55Z,42.805,6.029,13.2993,4.60048,2470.133,2021-1-29T15:33:57Z
2021-01-29T13:35:58Z,42.805,6.029,13.2987,4.60067,2470.147,2021-1-29T15:37:00Z
2021-01-29T13:39:01Z,42.805,6.029,13.3004,4.60040,2470.147,2021-1-29T15:40:03Z
2021-01-29T13:42:04Z,42.805,6.029,13.3001,4.60051,2470.147,2021-1-29T15:43:07Z
2021-01-29T13:45:07Z,42.805,6.029,13.3017,4.60044,2470.133,2021-1-29T15:46:10Z
2021-01-29T13:48:10Z,42.805,6.029,13.2998,4.60046,2470.156,2021-1-29T15:49:13Z
2021-01-29T13:51:13Z,42.805,6.029,13.2998,4.60064,2470.133,2021-1-29T15:52:16Z
2021-01-29T13:54:17Z,42.805,6.029,13.2998,4.60046,2470.147,2021-1-29T15:55:19Z
2021-01-29T13:57:20Z,42.805,6.029,13.3003,4.60073,2470.124,2021-1-29T15:58:22Z
2021-01-29T14:00:23Z,42.805,6.029,13.3003,4.60064,2470.133,2021-1-29T16:01:25Z
2021-01-29T14:03:26Z,42.805,6.029,13.3015,4.60077,2470.171,2021-1-29T16:04:28Z
2021-01-29T14:06:29Z,42.805,6.029,13.3024,4.60057,2470.133,2021-1-29T16:07:32Z
2021-01-29T14:09:32Z,42.805,6.029,13.3011,4.60052,2470.147,2021-1-29T16:10:35Z
2021-01-29T14:12:35Z,42.805,6.029,13.3015,4.60029,2470.11,2021-1-29T16:13:38Z
2021-01-29T14:15:38Z,42.805,6.029,13.3018,4.60031,2470.11,2021-1-29T16:16:41Z
2021-01-29T14:18:42Z,42.805,6.029,13.3014,4.60015,2470.133,2021-1-29T16:19:44Z
2021-01-29T14:21:45Z,42.805,6.029,13.3019,4.60010,2470.133,2021-1-29T16:22:47Z
2021-01-29T14:24:48Z,42.805,6.029,13.3029,4.60010,2470.087,2021-1-29T16:25:50Z
2021-01-29T14:27:51Z,42.805,6.029,13.3014,4.60034,2470.133,2021-1-29T16:28:53Z
2021-01-29T14:30:54Z,42.805,6.029,13.3007,4.60043,2470.124,2021-1-29T16:31:57Z
2021-01-29T14:33:57Z,42.805,6.029,13.3011,4.60067,2470.133,2021-1-29T16:35:00Z
2021-01-29T14:37:00Z,42.805,6.029,13.3004,4.60014,2470.124,2021-1-29T16:38:03Z
2021-01-29T14:40:03Z,42.805,6.029,13.3004,4.60017,2470.147,2021-1-29T16:41:06Z
2021-01-29T14:43:07Z,42.805,6.029,13.3008,4.60013,2470.124,2021-1-29T16:44:09Z
2021-01-29T14:46:10Z,42.805,6.029,13.3007,4.60026,2470.11,2021-1-29T16:47:12Z
2021-01-29T14:49:13Z,42.805,6.029,13.3003,4.60036,2470.124,2021-1-29T16:50:15Z
2021-01-29T14:52:16Z,42.805,6.029,13.3005,4.60025,2470.124,2021-1-29T16:53:18Z
2021-01-29T14:55:19Z,42.805,6.029,13.3066,4.60018,2470.087,2021-1-29T16:56:22Z
2021-01-29T14:58:22Z,42.805,6.029,13.3008,4.60021,2470.11,2021-1-29T16:59:25Z
2021-01-29T15:01:25Z,42.805,6.029,13.3001,4.60019,2470.124,2021-1-29T17:02:28Z
2021-01-29T15:04:28Z,42.805,6.029,13.3014,4.60016,2470.124,2021-1-29T17:05:31Z
2021-01-29T15:07:32Z,42.805,6.029,13.3011,4.60026,2470.147,2021-1-29T17:08:34Z
2021-01-29T15:10:35Z,42.805,6.029,13.3010,4.60026,2470.124,2021-1-29T17:11:37Z
2021-01-29T15:13:38Z,42.805,6.029,13.2990,4.60008,2470.133,2021-1-29T17:14:40Z